Voltar ao catálogo

TIANPING-2B

AtivoCiênciaSSO
NORAD 52156·PAYLOAD·🇨🇳 China
Este nome de satélite ainda não foi confirmado por fontes oficiais.

Lançado Mar 30, 2022 de Jiuquan Satellite Launch Center

Loading…

Próximas Passagens (próximas 24 horas)

TLE

AtualizadoSource: Space-Track

Época: Sep 14, 2026, 14:02 UTC

1 52156U 22032D   26257.58479441  .00002932  00000-0  17497-3 0  9999
2 52156  97.5744 309.2053 0005717 194.0828 166.0244 15.11905635244358

Acompanhe TIANPING-2B em tempo real com AllMySat

Download on the App Store